DELTA 1 DEB, 42631

Orbit data source: Space-Track

DELTA 1 DEB, 42631 is space debris in SSO originally from a launch on Thu, 12 Jun 1975 UTC launched from the Air Force Western Test Range (AFWTR). Debris objects in space refer to the collection of defunct objects orbiting the Earth. Examples of debris include non-operational satellites, rocket bodies, and fragments generated from explosions, collisions, or faulty payload assembly.

Loading next visibility...
Identifier
42631, 1975-052LQ
Orbit
SSO
Country
Flag of USUS
Related business
Manufacturer
Unknown
Mission
Spacecraft
Bus & Motor
Unknown
Mass
Unknown
Launch date (UTC)
1975-06-12 (51 years ago)
Launch vehicle
Unknown
Launch site
Air Force Western Test Range (AFWTR)
Object type
Payload
Rocket body
Debris
Shape & HBR
Unknown shape, 0.1 m
Radar Cross Section
Small (<0.1 m²)

Expand to show TLE details & history
Last TLE update: 2 days ago

TLE from 2 days ago
0 DELTA 1 DEB
1 42631U 75052LQ  26033.01814139  .00000104  00000-0  21066-3 0  9999
2 42631  99.7614 305.8212 0043544 263.3698  96.2482 13.56350309603692
Epoch: 2026-02-02T00:26Z
TLE epoch observation values (Epoch: 2026-02-02T00:26:07.416Z)
Latitude
-0.00002°
Longitude
167.07085°
Altitude
1,055.437 km
Speed
7.322 km/s
True Right ascension
20h 23m 17s
True Declination
0° 00' 00"
Sunlit
Object was in daylight at epoch
Visualization orbit readout
Latitude
Unknown
Longitude
Unknown
Altitude
Unknown
Speed
Unknown
Apparent Right ascension
Unknown
Apparent Declination
Unknown
Sunlit
N/A
Visualization observer readout
Local Sidereal Time
06:27:12
Azimuth
Unknown
Elevation
Unknown
Doppler factor
Unknown
Orbital elements
Apogee altitude
1,078.611 km
Perigee altitude
1,013.953 km
Semi-major axis
7,424.419 km
Eccentricity
0.00435
Inclination
99.7614°
RAAN
305.8212°
Arg. of periapsis
263.3698°
True anomaly
96.74391°
Mean anomaly
96.2482°
Eccentric anomaly
96.49609°
Mean motion
3.39273 °/min
Orbital period
106.11 mins
BSTAR
0.00021066
Loading maneuver chart data...
Computing Atmospheric mass density...
Loading historical data...
Loading historical data...
Loading historical data...
Loading historical data...
Loading historical data...
Loading historical data...
Loading historical data...

Documentation

Showing up to 5 results
|